Airfield :
LOGIN :

Register | Disclaimer

   EN    FR    IT 

 










Legend :    VFR   Marginal VFR   IFR   Intensive IFR   Very Intensive IFR
Visi :
Ceiling :
>= 8 km
>= 3000ft
5 to 8 km
1000 to 3000 ft
1500m to 5 km
500 to 1000 ft
800 to 1500m
200 to 500 ft
< 800m
< 200 ft
Symbols :   Thunderstorms  Fog  Heavy snow  Heavy precipitations  Wind > 20 kt
SIGMETs :     Misc.  Thunderstorms  Icing  Turbulence  Mountain Waves  Volcanic Ashes







- Airport Elevation : 46 ft
- IATA code : PAF


LPMT - Montijo Air Base

CURRENT METAR :
  • 171200Z 23004KT 170V290 9999 SCT028 21/13 Q1017

EXPIRED METARs :
  • 171100Z 18003KT 140V220 9999 FEW028 20/14 Q1018
  • 171000Z 14004KT 100V170 9999 FEW030 18/15 Q1018

TAF TAF LPMT
Valid from the 17 at 12:00 until the 18 at 12:00 UTC


171103Z 1712/1812 29008KT 9999 SCT018
TEMPO 1715/1718 4000 RADZ BR SCT009 BKN014
BECMG 1716/1718 34012KT
TEMPO 1718/1800 36012G22KT 7000 -SHRA SCT010 BKN018
PROB30
TEMPO 1800/1806 4000 SHRA SCT010 BKN014 SCT020TCU
No reported NOTAMs for that airfield.



MET'MAP, your aeronautical weather chart ! - Copyright ORBIFLY December 2007 - Disclaimer

ORBIFLY MET'MAP TEAM :

Programming & Development : Alexandra Zaïnal
Concept & Development : Baudouin d'Aumeries
Co-Development & Prog : Marc-Olivier Méhu
Technical & hardware support : Manuel Goepfert

Contact : metmap@orbifly.com




SOURCES & CREDITS :

   NOAA